Home   Weather   Baker Island   Past weeks
Flag for US Minor Outlying Islands

Past Weather in Baker Island, US Minor Outlying Islands — Yesterday and Last 2 Weeks

Now
90 °F

Scattered clouds.


Feels Like: 111 °F
Forecast: 87 / 81 °F
Wind: 7 mph from East

Location: Funafuti

Current Time: Oct 23, 2019 at 12:20:13 pm

Latest Report: Oct 23, 2019 at 10:00 am


Visibility: N/A

Pressure: 29.83 "Hg

Humidity: 79%

Dew Point: 82 °F

Location of Baker IslandLocation

Past Weather in Baker Island — Graph

°F

Baker Island Temperature Yesterday

Maximum temperature yesterday: 91 °F (at 10:00 am)
Minimum temperature yesterday: 81 °F (at 11:00 pm)
Average temperature yesterday: 86 °F

High & Low Weather Summary for the Past Weeks

 TemperatureHumidityPressure
High91 °F (Oct 9, 4:00 pm)94% (Oct 14, 1:00 am)30.90 "Hg (Oct 14, 1:00 am)
Low77 °F (Oct 14, 6:00 am)59% (Oct 9, 4:00 pm)29.71 "Hg (Oct 10, 3:00 pm)
Average85 °F77%29.83 "Hg
* Reported Oct 8 10:00 am — Oct 23 10:00 am, Baker Island. Weather by CustomWeather, © 2019

Note: Actual official high and low records may vary slightly from our data, if they occured in-between our weather recording intervals... More about our weather records

Advertising

Baker Island Weather History for the Previous 24 Hours

Scroll right to see more
 ConditionsComfort  
Time TempWeatherWind HumidityBarometerVisibility
10:00 am
Wed, Oct 23
90 °FScattered clouds.7 mph79%29.83 "HgN/A
9:00 am88 °FScattered clouds.7 mph70%29.83 "HgN/A
8:00 am84 °FBroken clouds.7 mph74%29.83 "HgN/A
7:00 am82 °FSprinkles. Broken clouds.7 mph89%29.83 "HgN/A
6:00 am82 °FScattered showers. Broken clouds.5 mph89%29.80 "HgN/A
5:00 am82 °FPartly cloudy.6 mph84%29.80 "HgN/A
3:00 am79 °FScattered showers. Partly cloudy.5 mph94%29.77 "HgN/A
2:00 am79 °FThunderstorms. Passing clouds.3 mph94%29.80 "HgN/A
12:00 am81 °FPassing clouds.3 mph89%29.83 "HgN/A
11:00 pm
Tue, Oct 22
81 °FPassing clouds.3 mph89%29.83 "HgN/A
10:00 pm84 °FPassing clouds.6 mph84%29.83 "HgN/A
9:00 pm84 °FPassing clouds.6 mph79%29.83 "HgN/A
8:00 pm84 °FPassing clouds.3 mph79%29.80 "HgN/A
7:00 pm84 °FPassing clouds.5 mph79%29.77 "HgN/A
6:00 pm86 °FPassing clouds.6 mph75%29.77 "HgN/A
5:00 pm88 °FPassing clouds.6 mph70%29.74 "HgN/A
4:00 pm88 °FScattered clouds.6 mph70%29.74 "HgN/A
3:00 pm90 °FPassing clouds.5 mph67%29.74 "HgN/A
2:00 pm90 °FScattered clouds.8 mph67%29.77 "HgN/A
1:00 pm90 °FScattered clouds.8 mph71%29.77 "HgN/A
12:00 pm90 °FScattered clouds.6 mph71%29.80 "HgN/A
Weather by CustomWeather, © 2019

See weather overview